START_TIME,STEP,MOV.,M34,t_acc.,L5,t_acc.,L18,t_acc.,L14,t_acc.
1979-07-19 09:00:24.560 ,0,0,0.,12.0,0.,12.0,0.,12.0,0.,12.0
1979-07-19 09:00:36.560 ,0,0,0.,12.0,0.,12.0,0.,12.0,0.,12.0
1979-07-19 09:01:12.560 ,0,0,0.,12.0,0.,12.0,0.,12.0,0.,12.0
1979-07-19 09:01:24.560 ,0,0,0.,12.0,0.,12.0,0.,12.0,0.,12.0
1979-07-19 09:01:36.560 ,1,1,0.,12.0,0.,12.0,0.,12.0,0.,12.0
1979-07-19 09:01:48.560 ,1,1,0.,12.0,0.,12.0,0.,12.0,0.,12.0
1979-07-19 09:03:12.560 ,3,1,0.,12.0,0.,12.0,0.,12.0,0.,12.0
1979-07-19 09:03:24.560 ,3,1,0.,12.0,0.,12.0,0.,12.0,0.,12.0
1979-07-19 09:05:12.560 ,5,0,0.,12.0,0.,12.0,0.,12.0,0.,12.0
1979-07-19 09:05:24.560 ,5,0,0.,12.0,0.,12.0,0.,12.0,0.,12.0
1979-07-19 09:07:12.560 ,4,1,0.,12.0,0.,12.0,0.,12.0,0.,12.0
1979-07-19 09:07:24.560 ,4,1,0.,12.0,0.,12.0,0.,12.0,0.,12.0
1979-07-19 09:08:48.560 ,4,1,0.,12.0,0.,12.0,0.,12.0,0.,12.0
1979-07-19 09:09:00.560 ,4,1,0.,12.0,0.,12.0,0.,12.0,0.,12.0
1979-07-19 09:09:12.560 ,0,1,0.,12.0,0.,12.0,0.,12.0,0.,12.0
1979-07-19 09:09:24.560 ,0,1,0.,12.0,0.,12.0,0.,12.0,0.,12.0
1979-07-19 09:09:36.560 ,3,1,0.,12.0,0.,12.0,0.,12.0,0.,12.0
1979-07-19 09:09:48.560 ,3,1,0.,12.0,0.,12.0,0.,12.0,0.,12.0
1979-07-19 09:10:48.560 ,0,1,0.,12.0,0.,12.0,0.,12.0,0.,12.0
1979-07-19 09:11:00.560 ,0,1,0.,12.0,0.,12.0,0.,12.0,0.,12.0
1979-07-19 09:11:12.560 ,3,1,0.,12.0,0.,12.0,0.,12.0,0.,12.0
1979-07-19 09:11:24.560 ,3,1,0.,12.0,0.,12.0,0.,12.0,0.,12.0
1979-07-19 09:12:48.560 ,3,1,0.,12.0,0.,12.0,0.,12.0,0.,12.0
1979-07-19 09:13:00.560 ,3,1,0.,12.0,0.,12.0,0.,12.0,0.,12.0
1979-07-19 09:13:12.560 ,7,1,0.,12.0,0.,12.0,0.,12.0,0.,12.0
1979-07-19 09:13:24.560 ,7,1,0.,12.0,0.,12.0,0.,12.0,0.,12.0
1979-07-19 09:14:48.560 ,7,1,0.,12.0,0.,12.0,0.,12.0,0.,12.0
1979-07-19 09:15:00.560 ,7,1,0.,12.0,0.,12.0,0.,12.0,0.,12.0
1979-07-19 09:15:12.560 ,4,1,0.,12.0,0.,12.0,0.,12.0,0.,12.0
1979-07-19 09:15:24.560 ,4,1,0.,12.0,0.,12.0,0.,12.0,0.,12.0
1979-07-19 09:16:48.560 ,4,1,0.,12.0,0.,12.0,0.,12.0,0.,12.0
1979-07-19 09:17:00.560 ,4,1,0.,12.0,0.,12.0,0.,12.0,0.,12.0
1979-07-19 09:18:48.560 ,5,0,0.,12.0,0.,12.0,0.,12.0,0.,12.0
1979-07-19 09:19:00.560 ,5,0,0.,12.0,0.,12.0,0.,12.0,0.,12.0
1979-07-19 09:20:24.560 ,3,0,0.,12.0,0.,12.0,0.,12.0,0.,12.0
1979-07-19 09:20:36.560 ,3,0,0.,12.0,0.,12.0,0.,12.0,0.,12.0
1979-07-19 09:20:48.560 ,2,1,0.,12.0,0.,12.0,0.,12.0,0.,12.0
1979-07-19 09:21:00.560 ,2,1,0.,12.0,0.,12.0,0.,12.0,0.,12.0
1979-07-19 09:22:24.560 ,0,1,0.,12.0,0.,12.0,0.,12.0,0.,12.0
1979-07-19 09:22:36.560 ,0,1,0.,12.0,0.,12.0,0.,12.0,0.,12.0
1979-07-19 09:22:48.560 ,0,0,0.,12.0,0.,12.0,0.,12.0,0.,12.0
1979-07-19 09:23:00.560 ,0,0,0.,12.0,0.,12.0,0.,12.0,0.,12.0
1979-07-19 09:24:00.560 ,1,1,0.,12.0,0.,12.0,0.,12.0,0.,12.0
1979-07-19 09:24:12.560 ,1,1,0.,12.0,0.,12.0,0.,12.0,0.,12.0
1979-07-19 09:24:24.560 ,1,0,0.,12.0,0.,12.0,0.,12.0,0.,12.0
1979-07-19 09:24:36.560 ,1,0,0.,12.0,0.,12.0,0.,12.0,0.,12.0
1979-07-19 09:26:00.560 ,3,0,0.,12.0,0.,12.0,0.,12.0,0.,12.0
1979-07-19 09:26:12.560 ,3,0,0.,12.0,0.,12.0,0.,12.0,0.,12.0
1979-07-19 09:26:24.560 ,4,1,0.,12.0,0.,12.0,0.,12.0,0.,12.0
1979-07-19 09:26:36.560 ,4,1,0.,12.0,0.,12.0,0.,12.0,0.,12.0
1979-07-19 09:27:36.560 ,5,0,0.,12.0,0.,12.0,0.,12.0,0.,12.0
1979-07-19 09:27:48.560 ,5,0,0.,12.0,0.,12.0,0.,12.0,0.,12.0
1979-07-19 09:28:24.560 ,6,0,0.,12.0,0.,12.0,0.,12.0,0.,12.0
1979-07-19 09:28:36.560 ,6,0,0.,12.0,0.,12.0,0.,12.0,0.,12.0
1979-07-19 09:28:48.560 ,7,1,0.,12.0,0.,12.0,0.,12.0,0.,12.0
1979-07-19 09:29:00.560 ,7,1,0.,12.0,0.,12.0,0.,12.0,0.,12.0
1979-07-19 09:29:12.560 ,7,0,0.,12.0,0.,12.0,0.,12.0,0.,12.0
1979-07-19 09:29:24.560 ,7,0,0.,12.0,0.,12.0,0.,12.0,0.,12.0
1979-07-19 09:30:00.560 ,7,0,0.,12.0,0.,12.0,0.,12.0,0.,12.0
1979-07-19 09:30:12.560 ,7,0,0.,12.0,0.,12.0,0.,12.0,0.,12.0
1979-07-19 09:30:24.560 ,6,1,0.,12.0,0.,12.0,0.,12.0,0.,12.0
1979-07-19 09:30:36.560 ,6,1,0.,12.0,0.,12.0,0.,12.0,0.,12.0
1979-07-19 09:30:48.560 ,6,0,0.,12.0,0.,12.0,0.,12.0,0.,12.0
1979-07-19 09:31:00.560 ,6,0,0.,12.0,0.,12.0,0.,12.0,0.,12.0
1979-07-19 09:32:00.560 ,4,1,0.,12.0,0.,12.0,0.,12.0,0.,12.0
1979-07-19 09:32:12.560 ,4,1,1.,12.0,0.,12.0,0.,12.0,0.,12.0
1979-07-19 09:34:00.560 ,2,0,0.,12.0,0.,12.0,0.,12.0,0.,12.0
1979-07-19 09:34:12.560 ,2,0,0.,12.0,0.,12.0,0.,12.0,0.,12.0
1979-07-19 09:34:24.560 ,1,1,0.,12.0,0.,12.0,0.,12.0,0.,12.0
1979-07-19 09:34:36.560 ,1,1,0.,12.0,0.,12.0,0.,12.0,0.,12.0
1979-07-19 09:36:00.560 ,0,1,0.,12.0,0.,12.0,0.,12.0,0.,12.0
1979-07-19 09:36:12.560 ,0,1,0.,12.0,0.,12.0,0.,12.0,0.,12.0
1979-07-19 09:36:24.560 ,0,0,0.,12.0,0.,12.0,0.,12.0,0.,12.0
1979-07-19 09:36:36.560 ,0,0,0.,12.0,0.,12.0,0.,12.0,0.,12.0
1979-07-19 09:37:36.560 ,2,1,0.,12.0,0.,12.0,0.,12.0,1.,12.0
1979-07-19 09:37:48.560 ,2,1,0.,12.0,0.,12.0,0.,12.0,0.,12.0
1979-07-19 09:38:00.560 ,2,0,0.,12.0,0.,12.0,0.,12.0,0.,12.0
1979-07-19 09:38:12.560 ,2,0,0.,12.0,0.,12.0,0.,12.0,0.,12.0
1979-07-19 09:39:12.560 ,4,1,0.,12.0,0.,12.0,0.,12.0,0.,12.0
1979-07-19 09:39:24.560 ,4,1,0.,12.0,0.,12.0,0.,12.0,0.,12.0
1979-07-19 09:39:36.560 ,4,0,0.,12.0,0.,12.0,0.,12.0,0.,12.0
1979-07-19 09:39:48.560 ,4,0,0.,12.0,0.,12.0,0.,12.0,0.,12.0
1979-07-19 09:41:12.560 ,6,0,0.,12.0,0.,12.0,0.,12.0,0.,12.0
1979-07-19 09:41:24.560 ,6,0,0.,12.0,0.,12.0,0.,12.0,0.,12.0
1979-07-19 09:41:36.560 ,7,1,0.,12.0,0.,12.0,0.,12.0,0.,12.0
1979-07-19 09:41:48.560 ,7,1,0.,12.0,0.,12.0,0.,12.0,0.,12.0
1979-07-19 09:43:36.560 ,6,0,0.,12.0,0.,12.0,0.,12.0,0.,12.0
1979-07-19 09:43:48.560 ,6,0,0.,12.0,0.,12.0,0.,12.0,0.,12.0
1979-07-19 09:44:00.560 ,5,1,0.,12.0,0.,12.0,0.,12.0,0.,12.0
1979-07-19 09:44:12.560 ,5,1,0.,12.0,0.,12.0,0.,12.0,0.,12.0
1979-07-19 09:44:24.560 ,5,0,0.,12.0,0.,12.0,0.,12.0,0.,12.0
1979-07-19 09:44:36.560 ,5,0,0.,12.0,0.,12.0,0.,12.0,0.,12.0
1979-07-19 09:44:48.560 ,4,1,0.,12.0,0.,12.0,0.,12.0,0.,12.0
1979-07-19 09:45:00.560 ,4,1,0.,12.0,0.,12.0,0.,12.0,0.,12.0
1979-07-19 09:45:12.560 ,4,0,0.,12.0,0.,12.0,0.,12.0,0.,12.0
1979-07-19 09:45:24.560 ,4,0,0.,12.0,0.,12.0,0.,12.0,0.,12.0
1979-07-19 09:45:36.560 ,3,1,0.,12.0,0.,12.0,0.,12.0,0.,12.0
1979-07-19 09:45:48.560 ,3,1,0.,12.0,0.,12.0,0.,12.0,0.,12.0
1979-07-19 09:46:00.560 ,3,0,0.,12.0,0.,12.0,0.,12.0,0.,12.0
1979-07-19 09:46:12.560 ,3,0,0.,12.0,0.,12.0,0.,12.0,0.,12.0
1979-07-19 09:46:48.560 ,2,0,0.,12.0,0.,12.0,0.,12.0,0.,12.0
1979-07-19 09:47:00.560 ,2,0,0.,12.0,0.,12.0,0.,12.0,0.,12.0
1979-07-19 09:47:12.560 ,1,1,0.,12.0,0.,12.0,0.,12.0,0.,12.0
1979-07-19 09:47:24.560 ,1,1,0.,12.0,0.,12.0,0.,12.0,0.,12.0
1979-07-19 09:48:24.560 ,0,0,0.,12.0,0.,12.0,0.,12.0,0.,12.0
1979-07-19 09:48:36.560 ,0,0,0.,12.0,0.,12.0,0.,12.0,0.,12.0
1979-07-19 09:48:48.560 ,0,1,0.,12.0,0.,12.0,0.,12.0,0.,12.0
1979-07-19 09:49:00.560 ,0,1,0.,12.0,0.,12.0,0.,12.0,0.,12.0
1979-07-19 09:49:12.560 ,0,0,0.,12.0,0.,12.0,0.,12.0,0.,12.0
1979-07-19 09:49:24.560 ,0,0,0.,12.0,0.,12.0,0.,12.0,0.,12.0
1979-07-19 09:49:36.560 ,1,1,0.,12.0,0.,12.0,0.,12.0,0.,12.0
1979-07-19 09:49:48.560 ,1,1,0.,12.0,0.,12.0,0.,12.0,0.,12.0
1979-07-19 09:50:00.560 ,1,0,0.,12.0,0.,12.0,0.,12.0,0.,12.0
1979-07-19 09:50:12.560 ,1,0,0.,12.0,0.,12.0,0.,12.0,0.,12.0
1979-07-19 09:50:24.560 ,2,1,0.,12.0,0.,12.0,0.,12.0,0.,12.0
1979-07-19 09:50:36.560 ,2,1,0.,12.0,0.,12.0,0.,12.0,0.,12.0
1979-07-19 09:50:48.560 ,2,0,0.,12.0,0.,12.0,0.,12.0,0.,12.0
1979-07-19 09:51:00.560 ,2,0,0.,12.0,0.,12.0,0.,12.0,0.,12.0
1979-07-19 09:51:12.560 ,3,1,0.,12.0,0.,12.0,0.,12.0,0.,12.0
1979-07-19 09:51:24.560 ,3,1,0.,12.0,0.,12.0,0.,12.0,0.,12.0
1979-07-19 09:51:36.560 ,3,0,0.,12.0,0.,12.0,0.,12.0,0.,12.0
1979-07-19 09:51:48.560 ,3,0,0.,12.0,0.,12.0,0.,12.0,0.,12.0
1979-07-19 09:52:00.560 ,4,1,0.,12.0,0.,12.0,0.,12.0,0.,12.0
1979-07-19 09:52:12.560 ,4,1,0.,12.0,0.,12.0,0.,12.0,0.,12.0
1979-07-19 09:52:24.560 ,4,0,0.,12.0,0.,12.0,0.,12.0,0.,12.0
1979-07-19 09:52:36.560 ,4,0,0.,12.0,0.,12.0,0.,12.0,0.,12.0
1979-07-19 09:52:48.560 ,5,1,0.,12.0,0.,12.0,0.,12.0,0.,12.0
1979-07-19 09:53:00.560 ,5,1,0.,12.0,0.,12.0,0.,12.0,0.,12.0
1979-07-19 09:53:12.560 ,5,0,0.,12.0,0.,12.0,0.,12.0,0.,12.0
1979-07-19 09:53:24.560 ,5,0,0.,12.0,0.,12.0,0.,12.0,0.,12.0
1979-07-19 09:53:36.560 ,6,1,0.,12.0,0.,12.0,0.,12.0,0.,12.0
1979-07-19 09:53:48.560 ,6,1,0.,12.0,0.,12.0,0.,12.0,0.,12.0
1979-07-19 09:54:00.560 ,6,0,0.,12.0,0.,12.0,0.,12.0,0.,12.0
1979-07-19 09:54:12.560 ,6,0,0.,12.0,0.,12.0,0.,12.0,0.,12.0
1979-07-19 09:54:24.560 ,7,0,0.,12.0,0.,12.0,0.,12.0,0.,12.0
1979-07-19 09:54:36.560 ,7,0,0.,12.0,0.,12.0,0.,12.0,0.,12.0
1979-07-19 09:54:48.560 ,7,0,0.,12.0,0.,12.0,0.,12.0,0.,12.0
1979-07-19 09:55:00.560 ,7,0,0.,12.0,0.,12.0,0.,12.0,0.,12.0
1979-07-19 09:55:12.560 ,4,1,0.,12.0,0.,12.0,0.,12.0,0.,12.0
1979-07-19 09:55:24.560 ,4,1,0.,12.0,0.,12.0,0.,12.0,0.,12.0
1979-07-19 09:55:36.560 ,0,1,0.,12.0,0.,12.0,0.,12.0,0.,12.0
1979-07-19 09:55:48.560 ,0,1,0.,12.0,0.,12.0,0.,12.0,0.,12.0
1979-07-19 09:56:00.560 ,3,1,0.,12.0,0.,12.0,0.,12.0,0.,12.0
1979-07-19 09:56:12.560 ,3,1,0.,12.0,0.,12.0,0.,12.0,0.,12.0
1979-07-19 09:56:24.560 ,7,1,0.,12.0,0.,12.0,0.,12.0,0.,12.0
1979-07-19 09:56:36.560 ,7,1,0.,12.0,0.,12.0,0.,12.0,0.,12.0
1979-07-19 09:56:48.560 ,4,1,0.,12.0,0.,12.0,0.,12.0,0.,12.0
1979-07-19 09:57:00.560 ,4,1,0.,12.0,0.,12.0,0.,12.0,0.,12.0
1979-07-19 09:57:12.560 ,0,1,0.,12.0,0.,12.0,0.,12.0,0.,12.0
1979-07-19 09:57:24.560 ,0,1,0.,12.0,0.,12.0,0.,12.0,0.,12.0
1979-07-19 09:57:36.560 ,3,1,0.,12.0,0.,12.0,0.,12.0,0.,12.0
1979-07-19 09:57:48.560 ,3,1,0.,12.0,0.,12.0,0.,12.0,0.,12.0
1979-07-19 09:58:00.560 ,7,1,0.,12.0,0.,12.0,0.,12.0,0.,12.0
1979-07-19 09:58:12.560 ,7,1,0.,12.0,0.,12.0,0.,12.0,0.,12.0
1979-07-19 09:58:24.560 ,4,1,0.,12.0,0.,12.0,0.,12.0,0.,12.0
1979-07-19 09:58:36.560 ,4,1,0.,12.0,0.,12.0,0.,12.0,0.,12.0
1979-07-19 09:58:48.560 ,0,1,0.,12.0,0.,12.0,0.,12.0,0.,12.0
1979-07-19 09:59:00.560 ,0,1,0.,12.0,0.,12.0,0.,12.0,0.,12.0
1979-07-19 09:59:12.560 ,3,1,0.,12.0,0.,12.0,0.,12.0,0.,12.0
1979-07-19 09:59:24.560 ,3,1,0.,12.0,0.,12.0,0.,12.0,0.,12.0
1979-07-19 09:59:36.560 ,7,1,0.,12.0,0.,12.0,0.,12.0,0.,12.0
1979-07-19 09:59:48.560 ,7,1,0.,12.0,0.,12.0,0.,12.0,0.,12.0
1979-07-19 10:00:00.560 ,4,1,0.,12.0,0.,12.0,0.,12.0,0.,12.0
1979-07-19 10:00:12.560 ,4,1,0.,12.0,0.,12.0,0.,12.0,0.,12.0
1979-07-19 10:00:24.560 ,0,1,0.,12.0,0.,12.0,0.,12.0,0.,12.0
1979-07-19 10:00:36.560 ,0,1,0.,12.0,0.,12.0,0.,12.0,0.,12.0
1979-07-19 10:00:48.560 ,3,1,0.,12.0,0.,12.0,0.,12.0,0.,12.0
1979-07-19 10:01:00.560 ,3,1,0.,12.0,0.,12.0,0.,12.0,0.,12.0
1979-07-19 10:01:12.560 ,7,1,0.,12.0,0.,12.0,0.,12.0,0.,12.0
1979-07-19 10:01:24.560 ,7,1,0.,12.0,0.,12.0,0.,12.0,0.,12.0
1979-07-19 10:01:36.560 ,4,1,0.,12.0,0.,12.0,0.,12.0,0.,12.0
1979-07-19 10:01:48.560 ,4,1,0.,12.0,0.,12.0,0.,12.0,0.,12.0
1979-07-19 10:02:00.560 ,0,1,0.,12.0,0.,12.0,0.,12.0,0.,12.0
1979-07-19 10:02:12.560 ,0,1,0.,12.0,0.,12.0,0.,12.0,0.,12.0
1979-07-19 10:02:24.550 ,3,1,0.,12.0,0.,12.0,0.,12.0,0.,12.0
1979-07-19 10:02:36.560 ,3,1,0.,12.0,0.,12.0,0.,12.0,0.,12.0
1979-07-19 10:02:48.550 ,7,1,0.,12.0,0.,12.0,0.,12.0,0.,12.0
1979-07-19 10:03:00.560 ,7,1,0.,12.0,0.,12.0,0.,12.0,0.,12.0
1979-07-19 10:03:12.550 ,4,1,0.,12.0,0.,12.0,0.,12.0,0.,12.0
1979-07-19 10:03:24.560 ,4,1,0.,12.0,0.,12.0,0.,12.0,0.,12.0
1979-07-19 10:03:36.550 ,0,1,0.,12.0,0.,12.0,0.,12.0,0.,12.0
1979-07-19 10:03:48.560 ,0,1,0.,12.0,0.,12.0,0.,12.0,0.,12.0
1979-07-19 10:04:00.550 ,3,1,0.,12.0,0.,12.0,0.,12.0,0.,12.0
1979-07-19 10:04:12.550 ,3,1,0.,12.0,0.,12.0,0.,12.0,0.,12.0
1979-07-19 10:04:24.560 ,7,1,0.,12.0,0.,12.0,0.,12.0,0.,12.0
1979-07-19 10:04:36.560 ,7,1,0.,12.0,0.,12.0,0.,12.0,0.,12.0
1979-07-19 10:04:48.560 ,4,1,0.,12.0,0.,12.0,0.,12.0,0.,12.0
1979-07-19 10:05:00.560 ,4,1,0.,12.0,0.,12.0,0.,12.0,0.,12.0
1979-07-19 10:05:12.560 ,0,1,0.,12.0,0.,12.0,0.,12.0,0.,12.0
1979-07-19 10:05:24.560 ,0,1,0.,12.0,0.,12.0,0.,12.0,0.,12.0
1979-07-19 10:05:36.560 ,0,0,0.,12.0,0.,12.0,0.,12.0,0.,12.0
1979-07-19 10:05:48.560 ,0,0,0.,12.0,0.,12.0,0.,12.0,0.,12.0
1979-07-19 10:06:00.560 ,0,0,0.,12.0,0.,12.0,0.,12.0,0.,12.0
1979-07-19 10:06:12.560 ,0,0,0.,12.0,0.,12.0,0.,12.0,0.,12.0
1979-07-19 10:06:25.150 ,7,1,0.,12.0,0.,12.0,0.,12.0,0.,12.0
1979-07-19 10:06:37.150 ,7,1,0.,12.0,0.,12.0,0.,12.0,0.,12.0
1979-07-19 10:06:48.560 ,7,0,0.,12.0,0.,12.0,0.,12.0,0.,12.0
1979-07-19 10:07:00.560 ,7,0,0.,12.0,0.,12.0,0.,12.0,0.,12.0
1979-07-19 10:07:12.560 ,4,1,0.,12.0,0.,12.0,0.,12.0,0.,12.0
1979-07-19 10:07:24.560 ,4,1,0.,12.0,0.,12.0,0.,12.0,0.,12.0
1979-07-19 10:07:36.560 ,4,0,0.,12.0,0.,12.0,0.,12.0,0.,12.0
1979-07-19 10:07:48.560 ,4,0,0.,12.0,0.,12.0,0.,12.0,0.,12.0
1979-07-19 10:08:00.560 ,3,1,0.,12.0,0.,12.0,0.,12.0,0.,12.0
1979-07-19 10:08:12.560 ,3,1,0.,12.0,0.,12.0,0.,12.0,0.,12.0
1979-07-19 10:08:24.560 ,3,0,0.,12.0,0.,12.0,0.,12.0,0.,12.0
1979-07-19 10:08:36.550 ,3,0,0.,12.0,0.,12.0,0.,12.0,0.,12.0
1979-07-19 10:08:48.550 ,2,1,0.,12.0,0.,12.0,0.,12.0,0.,12.0
1979-07-19 10:09:00.550 ,2,1,0.,12.0,0.,12.0,0.,12.0,0.,12.0
1979-07-19 10:09:12.550 ,2,0,0.,12.0,0.,12.0,0.,12.0,0.,12.0
1979-07-19 10:09:24.550 ,2,0,0.,12.0,0.,12.0,0.,12.0,0.,12.0
1979-07-19 10:09:36.550 ,1,1,0.,12.0,0.,12.0,0.,12.0,0.,12.0
1979-07-19 10:09:48.550 ,1,1,0.,12.0,0.,12.0,0.,12.0,0.,12.0
1979-07-19 10:10:00.550 ,1,0,0.,12.0,0.,12.0,0.,12.0,0.,12.0
1979-07-19 10:10:12.550 ,1,0,0.,12.0,0.,12.0,0.,12.0,0.,12.0
1979-07-19 10:10:24.550 ,0,1,0.,12.0,0.,12.0,0.,12.0,0.,12.0
1979-07-19 10:10:36.550 ,0,1,0.,12.0,0.,12.0,0.,12.0,0.,12.0
1979-07-19 10:10:48.550 ,0,0,0.,12.0,0.,12.0,0.,12.0,0.,12.0
1979-07-19 10:11:00.550 ,0,0,0.,12.0,0.,12.0,0.,12.0,0.,12.0
1979-07-19 10:11:12.550 ,0,1,0.,12.0,0.,12.0,0.,12.0,0.,12.0
1979-07-19 10:11:24.550 ,0,1,0.,12.0,0.,12.0,0.,12.0,0.,12.0
1979-07-19 10:11:36.550 ,0,0,0.,12.0,0.,12.0,0.,12.0,0.,12.0
1979-07-19 10:11:48.550 ,0,0,0.,12.0,0.,12.0,0.,12.0,0.,12.0
1979-07-19 10:12:00.550 ,1,1,0.,12.0,0.,12.0,0.,12.0,0.,12.0
1979-07-19 10:12:12.550 ,1,1,0.,12.0,0.,12.0,0.,12.0,0.,12.0
1979-07-19 10:12:24.550 ,1,0,0.,12.0,0.,12.0,0.,12.0,0.,12.0
1979-07-19 10:12:36.550 ,1,0,0.,12.0,0.,12.0,0.,12.0,0.,12.0
1979-07-19 10:12:48.550 ,2,1,0.,12.0,0.,12.0,0.,12.0,0.,12.0
1979-07-19 10:13:00.550 ,2,1,0.,12.0,0.,12.0,0.,12.0,0.,12.0
1979-07-19 10:13:12.550 ,2,0,0.,12.0,0.,12.0,0.,12.0,0.,12.0
1979-07-19 10:13:24.550 ,2,0,0.,12.0,0.,12.0,0.,12.0,0.,12.0
1979-07-19 10:13:36.550 ,3,1,0.,12.0,0.,12.0,0.,12.0,0.,12.0
1979-07-19 10:13:48.550 ,3,1,0.,12.0,0.,12.0,0.,12.0,0.,12.0
1979-07-19 10:14:00.550 ,3,0,0.,12.0,0.,12.0,0.,12.0,0.,12.0
1979-07-19 10:14:12.550 ,3,0,0.,12.0,0.,12.0,0.,12.0,0.,12.0
1979-07-19 10:14:24.550 ,4,1,0.,12.0,0.,12.0,0.,12.0,0.,12.0
1979-07-19 10:14:36.550 ,4,1,0.,12.0,0.,12.0,0.,12.0,0.,12.0
1979-07-19 10:14:48.550 ,4,0,0.,12.0,0.,12.0,0.,12.0,0.,12.0
1979-07-19 10:15:00.550 ,4,0,0.,12.0,0.,12.0,0.,12.0,0.,12.0
1979-07-19 10:15:12.550 ,5,1,0.,12.0,0.,12.0,0.,12.0,0.,12.0
1979-07-19 10:15:24.550 ,5,1,0.,12.0,0.,12.0,0.,12.0,0.,12.0
1979-07-19 10:15:36.550 ,5,0,0.,12.0,0.,12.0,0.,12.0,0.,12.0
1979-07-19 10:15:48.550 ,5,0,0.,12.0,0.,12.0,0.,12.0,0.,12.0
1979-07-19 10:16:00.550 ,6,1,0.,12.0,0.,12.0,0.,12.0,0.,12.0
1979-07-19 10:16:12.550 ,6,1,0.,12.0,0.,12.0,0.,12.0,0.,12.0
1979-07-19 10:16:24.550 ,6,0,0.,12.0,0.,12.0,0.,12.0,0.,12.0
1979-07-19 10:16:36.550 ,6,0,0.,12.0,0.,12.0,0.,12.0,0.,12.0
1979-07-19 10:16:48.550 ,7,1,0.,12.0,0.,12.0,0.,12.0,0.,12.0
1979-07-19 10:17:00.550 ,7,1,0.,12.0,0.,12.0,0.,12.0,0.,12.0
1979-07-19 10:17:12.550 ,7,0,0.,12.0,0.,12.0,0.,12.0,0.,12.0
1979-07-19 10:17:24.550 ,7,0,0.,12.0,0.,12.0,0.,12.0,0.,12.0
1979-07-19 10:17:36.550 ,7,1,0.,12.0,0.,12.0,0.,12.0,0.,12.0
1979-07-19 10:17:48.550 ,7,1,0.,12.0,0.,12.0,0.,12.0,0.,12.0
1979-07-19 10:18:00.550 ,7,0,0.,12.0,0.,12.0,0.,12.0,0.,12.0
1979-07-19 10:18:12.550 ,7,0,0.,12.0,0.,12.0,0.,12.0,0.,12.0
1979-07-19 10:18:24.550 ,6,1,0.,12.0,0.,12.0,0.,12.0,0.,12.0
1979-07-19 10:18:36.550 ,6,1,0.,12.0,0.,12.0,0.,12.0,0.,12.0
1979-07-19 10:18:48.550 ,6,0,0.,12.0,0.,12.0,0.,12.0,0.,12.0
1979-07-19 10:19:00.550 ,6,0,0.,12.0,0.,12.0,0.,12.0,0.,12.0
1979-07-19 10:19:12.550 ,5,1,0.,12.0,0.,12.0,0.,12.0,0.,12.0
1979-07-19 10:19:24.550 ,5,1,0.,12.0,0.,12.0,0.,12.0,0.,12.0
1979-07-19 10:19:36.550 ,5,0,0.,12.0,0.,12.0,0.,12.0,0.,12.0
1979-07-19 10:19:48.550 ,5,0,0.,12.0,0.,12.0,0.,12.0,0.,12.0
1979-07-19 10:20:00.550 ,4,1,0.,12.0,0.,12.0,0.,12.0,0.,12.0
1979-07-19 10:20:12.550 ,4,1,0.,12.0,0.,12.0,0.,12.0,0.,12.0
1979-07-19 10:20:24.550 ,4,0,0.,12.0,0.,12.0,0.,12.0,0.,12.0
1979-07-19 10:20:36.550 ,4,0,0.,12.0,0.,12.0,0.,12.0,0.,12.0
1979-07-19 10:20:48.550 ,3,1,0.,12.0,0.,12.0,0.,12.0,0.,12.0
1979-07-19 10:21:00.550 ,3,1,0.,12.0,0.,12.0,0.,12.0,0.,12.0
1979-07-19 10:21:12.550 ,3,0,0.,12.0,0.,12.0,0.,12.0,0.,12.0
1979-07-19 10:21:24.550 ,3,0,0.,12.0,0.,12.0,0.,12.0,0.,12.0
1979-07-19 10:21:36.550 ,2,1,0.,12.0,0.,12.0,0.,12.0,0.,12.0
1979-07-19 10:21:48.550 ,2,1,0.,12.0,0.,12.0,0.,12.0,0.,12.0
1979-07-19 10:22:00.550 ,2,0,0.,12.0,0.,12.0,0.,12.0,0.,12.0
1979-07-19 10:22:12.550 ,2,0,0.,12.0,0.,12.0,0.,12.0,0.,12.0
1979-07-19 10:22:24.550 ,1,1,0.,12.0,0.,12.0,0.,12.0,0.,12.0
1979-07-19 10:22:36.550 ,1,1,0.,12.0,0.,12.0,0.,12.0,0.,12.0
1979-07-19 10:22:48.550 ,1,0,0.,12.0,0.,12.0,0.,12.0,0.,12.0
1979-07-19 10:23:00.550 ,1,0,0.,12.0,0.,12.0,0.,12.0,0.,12.0
1979-07-19 10:23:12.550 ,0,1,0.,12.0,0.,12.0,0.,12.0,0.,12.0
1979-07-19 10:23:24.550 ,0,1,0.,12.0,0.,12.0,0.,12.0,0.,12.0
1979-07-19 10:23:36.550 ,0,0,0.,12.0,0.,12.0,0.,12.0,0.,12.0
1979-07-19 10:23:48.550 ,0,0,0.,12.0,0.,12.0,0.,12.0,0.,12.0
1979-07-19 10:24:00.550 ,0,1,0.,12.0,0.,12.0,0.,12.0,0.,12.0
1979-07-19 10:24:12.550 ,0,1,0.,12.0,0.,12.0,0.,12.0,0.,12.0
1979-07-19 10:24:24.550 ,0,0,0.,12.0,0.,12.0,0.,12.0,0.,12.0
1979-07-19 10:24:36.550 ,0,0,0.,12.0,0.,12.0,0.,12.0,0.,12.0
1979-07-19 10:24:48.550 ,1,1,0.,12.0,0.,12.0,0.,12.0,0.,12.0
1979-07-19 10:25:00.550 ,1,1,0.,12.0,0.,12.0,0.,12.0,0.,12.0
1979-07-19 10:25:12.550 ,1,0,0.,12.0,0.,12.0,0.,12.0,0.,12.0
1979-07-19 10:25:24.550 ,1,0,0.,12.0,0.,12.0,0.,12.0,0.,12.0
1979-07-19 10:25:36.550 ,2,1,0.,12.0,0.,12.0,0.,12.0,0.,12.0
1979-07-19 10:25:48.550 ,2,1,0.,12.0,0.,12.0,0.,12.0,0.,12.0
1979-07-19 10:26:00.550 ,2,0,0.,12.0,0.,12.0,0.,12.0,0.,12.0
1979-07-19 10:26:12.550 ,2,0,,0,,0,,0,,0
1979-07-19 10:26:24.550 ,3,1,0.,12.0,0.,12.0,0.,12.0,0.,12.0
1979-07-19 10:26:36.550 ,3,1,0.,12.0,0.,12.0,0.,12.0,0.,12.0
1979-07-19 10:26:48.550 ,3,0,0.,12.0,0.,12.0,0.,12.0,0.,12.0
1979-07-19 10:27:00.550 ,3,0,0.,12.0,0.,12.0,0.,12.0,0.,12.0
1979-07-19 10:27:12.550 ,4,1,0.,12.0,0.,12.0,0.,12.0,0.,12.0
1979-07-19 10:27:24.550 ,4,1,0.,12.0,0.,12.0,0.,12.0,0.,12.0
1979-07-19 10:27:36.550 ,4,0,0.,12.0,0.,12.0,0.,12.0,0.,12.0
1979-07-19 10:27:48.550 ,4,0,0.,12.0,0.,12.0,0.,12.0,0.,12.0
1979-07-19 10:28:00.550 ,5,1,0.,12.0,0.,12.0,0.,12.0,0.,12.0
1979-07-19 10:28:12.550 ,5,1,0.,12.0,0.,12.0,0.,12.0,0.,12.0
1979-07-19 10:28:24.550 ,5,0,0.,12.0,0.,12.0,0.,12.0,0.,12.0
1979-07-19 10:28:36.550 ,5,0,0.,12.0,0.,12.0,0.,12.0,0.,12.0
1979-07-19 10:28:48.550 ,6,1,0.,12.0,0.,12.0,0.,12.0,0.,12.0
1979-07-19 10:29:00.550 ,6,1,0.,12.0,0.,12.0,0.,12.0,0.,12.0
1979-07-19 10:29:12.550 ,6,0,0.,12.0,0.,12.0,0.,12.0,0.,12.0
1979-07-19 10:29:24.550 ,6,0,0.,12.0,0.,12.0,0.,12.0,0.,12.0
1979-07-19 10:29:36.550 ,7,1,0.,12.0,0.,12.0,0.,12.0,0.,12.0
1979-07-19 10:29:48.550 ,7,1,0.,12.0,0.,12.0,0.,12.0,0.,12.0
1979-07-19 10:30:00.550 ,7,0,0.,12.0,0.,12.0,0.,12.0,0.,12.0
1979-07-19 10:30:12.550 ,7,0,0.,12.0,0.,12.0,0.,12.0,0.,12.0
1979-07-19 10:30:24.550 ,7,1,0.,12.0,0.,12.0,0.,12.0,0.,12.0
1979-07-19 10:30:36.550 ,7,1,0.,12.0,0.,12.0,0.,12.0,0.,12.0
1979-07-19 10:30:48.550 ,7,0,0.,12.0,0.,12.0,0.,12.0,0.,12.0
1979-07-19 10:31:00.550 ,7,0,0.,12.0,0.,12.0,0.,12.0,0.,12.0
1979-07-19 10:31:12.550 ,6,1,0.,12.0,0.,12.0,0.,12.0,0.,12.0
1979-07-19 10:31:24.550 ,6,1,0.,12.0,0.,12.0,0.,12.0,0.,12.0
1979-07-19 10:31:36.550 ,6,0,0.,12.0,0.,12.0,0.,12.0,0.,12.0
1979-07-19 10:31:48.550 ,6,0,0.,12.0,0.,12.0,0.,12.0,0.,12.0
1979-07-19 10:32:00.550 ,5,1,0.,12.0,0.,12.0,0.,12.0,0.,12.0
1979-07-19 10:32:12.550 ,5,1,0.,12.0,0.,12.0,0.,12.0,0.,12.0
1979-07-19 10:32:24.550 ,5,0,0.,12.0,0.,12.0,0.,12.0,0.,12.0
1979-07-19 10:32:36.550 ,5,0,0.,12.0,0.,12.0,0.,12.0,0.,12.0
1979-07-19 10:32:48.550 ,4,1,0.,12.0,0.,12.0,0.,12.0,0.,12.0
1979-07-19 10:33:00.550 ,4,1,0.,12.0,0.,12.0,0.,12.0,0.,12.0
1979-07-19 10:33:12.550 ,4,0,0.,12.0,0.,12.0,0.,12.0,0.,12.0
1979-07-19 10:33:24.550 ,4,0,0.,12.0,0.,12.0,0.,12.0,0.,12.0
1979-07-19 10:33:36.550 ,3,1,0.,12.0,0.,12.0,0.,12.0,0.,12.0
1979-07-19 10:33:48.550 ,3,1,0.,12.0,0.,12.0,0.,12.0,0.,12.0
1979-07-19 10:34:00.550 ,3,0,0.,12.0,0.,12.0,0.,12.0,0.,12.0
1979-07-19 10:34:12.550 ,3,0,0.,12.0,0.,12.0,0.,12.0,0.,12.0
1979-07-19 10:34:24.550 ,2,1,0.,12.0,0.,12.0,0.,12.0,0.,12.0
1979-07-19 10:34:36.550 ,2,1,0.,12.0,0.,12.0,0.,12.0,0.,12.0
1979-07-19 10:34:48.550 ,2,0,0.,12.0,0.,12.0,0.,12.0,0.,12.0
1979-07-19 10:35:00.550 ,2,0,0.,12.0,0.,12.0,0.,12.0,0.,12.0
1979-07-19 10:35:12.550 ,1,1,0.,12.0,0.,12.0,0.,12.0,0.,12.0
1979-07-19 10:35:24.550 ,1,1,0.,12.0,0.,12.0,0.,12.0,0.,12.0
1979-07-19 10:35:36.550 ,1,0,0.,12.0,0.,12.0,0.,12.0,0.,12.0
1979-07-19 10:35:48.550 ,1,0,0.,12.0,0.,12.0,0.,12.0,0.,12.0
1979-07-19 10:36:00.550 ,0,1,0.,12.0,0.,12.0,0.,12.0,0.,12.0
1979-07-19 10:36:12.550 ,0,1,0.,12.0,0.,12.0,0.,12.0,0.,12.0
1979-07-19 10:36:24.550 ,0,0,0.,12.0,0.,12.0,0.,12.0,0.,12.0
1979-07-19 10:36:36.550 ,0,0,0.,12.0,0.,12.0,0.,12.0,0.,12.0
1979-07-19 10:36:48.550 ,0,1,0.,12.0,0.,12.0,0.,12.0,0.,12.0
1979-07-19 10:37:00.550 ,0,1,0.,12.0,0.,12.0,0.,12.0,0.,12.0
1979-07-19 10:37:12.550 ,0,0,0.,12.0,0.,12.0,0.,12.0,0.,12.0
1979-07-19 10:37:24.550 ,0,0,0.,12.0,0.,12.0,0.,12.0,0.,12.0
1979-07-19 10:37:36.550 ,1,1,0.,12.0,0.,12.0,0.,12.0,0.,12.0
1979-07-19 10:37:48.550 ,1,1,0.,12.0,0.,12.0,0.,12.0,0.,12.0
1979-07-19 10:38:00.550 ,1,0,0.,12.0,0.,12.0,0.,12.0,0.,12.0
1979-07-19 10:38:12.550 ,1,0,0.,12.0,0.,12.0,0.,12.0,0.,12.0
1979-07-19 10:38:24.550 ,2,1,0.,12.0,0.,12.0,0.,12.0,0.,12.0
1979-07-19 10:38:36.550 ,2,1,0.,12.0,0.,12.0,0.,12.0,0.,12.0
1979-07-19 10:38:48.550 ,2,0,0.,12.0,0.,12.0,0.,12.0,0.,12.0
1979-07-19 10:39:00.550 ,2,0,0.,12.0,0.,12.0,0.,12.0,0.,12.0
1979-07-19 10:39:12.550 ,3,1,0.,12.0,0.,12.0,0.,12.0,0.,12.0
1979-07-19 10:39:24.550 ,3,1,0.,12.0,0.,12.0,0.,12.0,0.,12.0
1979-07-19 10:39:36.550 ,3,0,0.,12.0,0.,12.0,0.,12.0,0.,12.0
1979-07-19 10:39:48.550 ,3,0,0.,12.0,0.,12.0,0.,12.0,0.,12.0
1979-07-19 10:40:00.550 ,4,1,0.,12.0,0.,12.0,0.,12.0,0.,12.0
1979-07-19 10:40:12.550 ,4,1,0.,12.0,0.,12.0,0.,12.0,0.,12.0
1979-07-19 10:40:24.550 ,4,0,0.,12.0,0.,12.0,0.,12.0,0.,12.0
1979-07-19 10:40:36.550 ,4,0,0.,12.0,0.,12.0,0.,12.0,0.,12.0
1979-07-19 10:40:48.550 ,5,1,0.,12.0,0.,12.0,0.,12.0,0.,12.0
1979-07-19 10:41:00.550 ,5,1,0.,12.0,0.,12.0,0.,12.0,0.,12.0
1979-07-19 10:41:12.550 ,5,0,0.,12.0,0.,12.0,0.,12.0,0.,12.0
1979-07-19 10:41:24.550 ,5,0,0.,12.0,0.,12.0,0.,12.0,0.,12.0
1979-07-19 10:41:36.550 ,6,1,0.,12.0,0.,12.0,0.,12.0,0.,12.0
1979-07-19 10:41:48.550 ,6,1,0.,12.0,0.,12.0,0.,12.0,0.,12.0
1979-07-19 10:42:00.550 ,6,0,0.,12.0,0.,12.0,0.,12.0,0.,12.0
1979-07-19 10:42:12.550 ,6,0,0.,12.0,0.,12.0,0.,12.0,0.,12.0
1979-07-19 10:42:24.550 ,7,0,0.,12.0,0.,12.0,0.,12.0,0.,12.0
1979-07-19 10:42:36.550 ,7,0,0.,12.0,0.,12.0,0.,12.0,0.,12.0
1979-07-19 10:42:48.550 ,7,0,0.,12.0,0.,12.0,0.,12.0,0.,12.0
1979-07-19 10:43:00.550 ,7,0,0.,12.0,0.,12.0,0.,12.0,0.,12.0
1979-07-19 10:43:12.550 ,4,1,0.,12.0,0.,12.0,0.,12.0,0.,12.0
1979-07-19 10:43:24.550 ,4,1,0.,12.0,0.,12.0,0.,12.0,0.,12.0
1979-07-19 10:43:36.550 ,0,1,0.,12.0,0.,12.0,0.,12.0,0.,12.0
1979-07-19 10:43:48.550 ,0,1,0.,12.0,0.,12.0,0.,12.0,0.,12.0
1979-07-19 10:44:00.550 ,3,1,0.,12.0,0.,12.0,0.,12.0,0.,12.0
1979-07-19 10:44:12.550 ,3,1,0.,12.0,0.,12.0,0.,12.0,0.,12.0
1979-07-19 10:44:24.550 ,7,1,0.,12.0,0.,12.0,0.,12.0,0.,12.0
1979-07-19 10:44:36.550 ,7,1,0.,12.0,0.,12.0,0.,12.0,0.,12.0